Location: Devils Tower National Monument
(44.5904°N, 104.7201°W)
Time: 19:33:23
(UTC-07:00)

Envisat - Pass Details

Date: 28 January 2020
Orbit: 764 x 766 km, 98.1° (Epoch: 25 February)

Event Time Altitude Azimuth Distance (km) Brightness Sun altitude
Rises 05:41:20 0° 26° (NNE) 3,239 6.5 -18.0°
Reaches altitude 10° 05:44:07 10° 40° (NE) 2,307 5.9 -17.5°
Maximum altitude 05:48:08 23° 93° (E) 1,575 5.6 -16.8°
Drops below altitude 10° 05:52:07 10° 145° (SE) 2,293 6.1 -16.1°
Sets 05:54:51 0° 160° (SSE) 3,213 6.7 -15.6°
